Weather History for Seward, AK

Change the Weather History Date:

Monday, November 19, 2012

  Actual Average Record
Temperature  
Mean Temperature 21 °F -  
Max Temperature 23 °F 35 °F 50 °F (2001)
Min Temperature 19 °F 25 °F 9 °F (1950)
Degree Days  
Heating Degree Days 44    
Moisture  
Dew Point 8 °F    
Average Humidity 57    
Maximum Humidity 72    
Minimum Humidity 48    
Precipitation  
Precipitation 0.00 in - - ()
Sea Level Pressure  
Sea Level Pressure 29.32 in    
Wind  
Wind Speed 24 mph (NNE)    
Max Wind Speed 34 mph    
Max Gust Speed 48 mph    
Visibility 10 miles    
Events      
Averages and records for this station are not official NWS values.
T = Trace of Precipitation, MM = Missing Value Source: NWS Daily Summary

Daily Weather History Graph

Daily Weather History Graph

Search for Another Location

Airport:

Trip Planner

Search our weather history database for the weather conditions in past years. The results will help you decide how hot, cold, wet, or windy it might be!

Date:

Astronomy

Nov. 19, 2012 Rise Set
Actual Time 9:08 AM AKST 4:17 PM AKST
Civil Twilight 8:17 AM AKST 5:08 PM AKST
Nautical Twilight 7:24 AM AKST 6:01 PM AKST
Astronomical Twilight 6:34 AM AKST 6:51 PM AKST
Moon 1:35 PM AKST (11/19) 11:44 PM AKST (11/19)
Length of Visible Light 8h 51m
Length of Day
7h 09m
Waxing Crescent, 42% of the Moon is Illuminated
Nov 19
Waxing Crescent
Nov 20
First Quarter
Nov 28
Full
Dec 6
Last Quarter
Dec 12
New

Hourly Weather History & Observations

Time (AKST) Temp. Windchill Dew Point Humidity Pressure Visibility Wind Dir Wind Speed Gust Speed Precip Events Conditions
12:53 AM 23.0 °F 8.7 °F 15.1 °F 72% 29.21 in 10.0 mi North 18.4 mph 27.6 mph N/A   Clear
1:53 AM 21.9 °F 6.5 °F 14.0 °F 72% 29.22 in 10.0 mi NNE 20.7 mph 33.4 mph N/A   Clear
2:53 AM 21.0 °F 4.3 °F 12.9 °F 71% 29.24 in 10.0 mi NNE 24.2 mph 35.7 mph N/A   Clear
3:53 AM 19.9 °F 3.2 °F 12.0 °F 71% 29.25 in 10.0 mi NNE 23.0 mph 40.3 mph N/A   Partly Cloudy
4:53 AM 19.9 °F 3.2 °F 10.9 °F 68% 29.25 in 10.0 mi NNE 23.0 mph 36.8 mph N/A   Clear
5:53 AM 19.9 °F 1.5 °F 10.0 °F 65% 29.28 in 10.0 mi North 28.8 mph 40.3 mph N/A   Mostly Cloudy
6:53 AM 19.9 °F 2.5 °F 10.0 °F 65% 29.29 in 10.0 mi North 25.3 mph 41.4 mph N/A   Overcast
7:53 AM 19.9 °F 1.5 °F 9.0 °F 62% 29.29 in 10.0 mi NNE 28.8 mph 43.7 mph N/A   Mostly Cloudy
8:53 AM 19.0 °F -0.5 °F 8.1 °F 62% 29.30 in 10.0 mi NNE 32.2 mph 42.6 mph N/A   Overcast
9:53 AM 19.0 °F 1.3 °F 7.0 °F 59% 29.31 in 10.0 mi NNE 25.3 mph 46.0 mph N/A   Overcast
10:53 AM 19.9 °F 2.2 °F 6.1 °F 55% 29.31 in 10.0 mi North 26.5 mph 42.6 mph N/A   Clear
11:53 AM 21.0 °F 2.4 °F 7.0 °F 55% 29.31 in 10.0 mi North 31.1 mph 41.4 mph N/A   Clear
12:53 PM 21.9 °F 2.9 °F 7.0 °F 53% 29.31 in 10.0 mi North 34.5 mph 43.7 mph N/A   Clear
1:53 PM 21.9 °F 5.1 °F 6.1 °F 51% 29.31 in 10.0 mi NNE 25.3 mph 43.7 mph N/A   Clear
2:53 PM 21.9 °F 3.4 °F 6.1 °F 51% 29.30 in 10.0 mi North 32.2 mph 48.3 mph N/A   Scattered Clouds
3:53 PM 23.0 °F 6.9 °F 7.0 °F 50% 29.30 in 10.0 mi North 24.2 mph 46.0 mph N/A   Scattered Clouds
4:53 PM 21.0 °F 2.2 °F 5.0 °F 50% 29.33 in 10.0 mi North 32.2 mph 43.7 mph N/A   Clear
5:53 PM 21.9 °F 5.1 °F 5.0 °F 48% 29.34 in 10.0 mi North 25.3 mph 38.0 mph N/A   Mostly Cloudy
6:53 PM 21.9 °F 6.5 °F 5.0 °F 48% 29.36 in 10.0 mi North 20.7 mph 36.8 mph N/A   Partly Cloudy
7:53 PM 21.9 °F 6.5 °F 5.0 °F 48% 29.38 in 10.0 mi North 20.7 mph 38.0 mph N/A   Clear
8:53 PM 21.9 °F 6.9 °F 5.0 °F 48% 29.40 in 10.0 mi North 19.6 mph 35.7 mph N/A   Clear
9:53 PM 21.0 °F 5.7 °F 3.9 °F 48% 29.42 in 10.0 mi North 19.6 mph 31.1 mph N/A   Mostly Cloudy
10:53 PM 21.0 °F 7.1 °F 5.0 °F 50% 29.43 in 10.0 mi NNE 16.1 mph 28.8 mph N/A   Clear
11:53 PM 19.9 °F 5.7 °F 7.0 °F 57% 29.44 in 10.0 mi NNE 16.1 mph 25.3 mph N/A   Clear